Wind_Speed
5 5 5 4 3 3 2 3 3 3 4 5 4 4 5 5 5 5 5 5 5 5 5 5 5 5 5 4 4 4 4 4 3 3 4 5 5 5 5 6 6 6 6
4 4 4 3 2 1 1 1 1 2 3 3 3 3 4 4 5 5 5 5 5 5 5 5 5 5 4 4 4 3 3 3 4 4 5 5 5 5 5 6 6 6 6
4 3 3 2 1 1 1 0 1 1 1 2 2 2 3 4 4 5 4 4 4 4 4 4 4 5 5 4 4 4 4 4 4 4 5 5 5 5 5 5 5 6 6
3 2 2 1 1 0 1 1 1 1 1 2 2 2 2 3 3 4 4 4 4 4 3 4 4 4 4 4 3 4 4 4 4 4 4 4 5 5 5 4 5 5 5
2 2 1 1 0 1 1 2 2 2 1 1 2 2 2 2 3 3 3 3 3 3 3 3 4 4 4 3 3 3 4 4 4 4 4 5 5 5 5 5 5 5 5
2 1 0 0 1 1 2 3 2 2 1 1 2 2 1 2 2 2 2 3 3 3 3 3 3 3 3 3 3 3 4 4 4 4 5 5 5 5 4 5 5 5 5
2 1 1 1 2 2 3 3 3 2 2 2 1 1 1 1 1 2 2 3 3 3 3 3 3 2 2 3 3 3 3 4 4 4 4 5 5 5 4 4 5 6 6
4 2 2 3 3 3 4 4 3 3 3 2 2 2 1 1 1 1 1 2 2 3 3 3 3 3 3 3 3 4 4 4 4 3 4 4 4 4 4 5 5 5 5
6 4 3 3 3 4 4 4 4 4 3 3 2 2 2 1 1 1 1 1 2 3 3 3 3 3 4 4 4 4 4 4 4 3 4 4 4 4 4 4 4 4 4
7 5 4 4 4 4 5 5 5 4 4 3 3 3 2 2 1 1 1 1 2 2 3 3 3 4 4 4 4 4 5 5 4 4 4 4 4 4 3 4 4 3 3
8 6 6 4 4 4 5 5 5 5 4 4 4 3 3 2 2 1 1 1 2 2 3 3 3 3 4 4 5 5 5 5 4 5 5 5 4 4 3 3 3 3 3
9 8 6 5 4 5 5 5 5 5 5 5 5 4 4 3 2 2 1 1 2 2 2 3 3 3 3 4 4 4 5 4 4 4 4 4 4 4 3 3 3 2 2
10 10 8 6 5 5 5 5 5 6 6 6 6 5 5 4 3 3 2 1 2 2 2 2 2 3 3 4 4 4 4 4 4 4 3 3 3 3 3 3 2 2 2
12 11 10 7 7 6 5 5 5 6 6 6 6 5 5 4 3 2 2 2 2 2 2 2 2 3 3 3 3 3 3 4 3 3 3 3 3 3 2 2 2 1 1
12 11 10 9 8 7 5 5 5 6 6 6 5 5 4 4 3 3 2 2 2 2 2 2 2 3 3 3 3 3 3 3 3 2 2 2 2 2 1 1 1 0 1
13 12 10 10 9 8 6 5 6 5 6 6 5 5 4 4 3 3 3 3 3 3 2 2 3 3 2 3 3 3 2 2 3 2 2 1 1 1 1 1 1 1 1
14 12 11 11 10 9 7 6 5 5 5 5 5 5 4 4 4 4 4 3 3 3 3 2 2 2 2 2 2 2 2 2 3 2 2 1 1 0 0 1 1 2 2
14 12 12 11 10 9 8 6 5 5 5 5 5 5 5 4 5 5 4 4 4 4 3 2 2 2 2 2 1 1 1 1 1 1 1 1 0 0 1 1 1 2 2
14 13 12 11 10 9 8 6 4 5 4 5 6 6 6 5 5 5 4 5 4 4 4 3 3 2 2 2 1 0 0 0 1 1 0 0 1 1 1 1 2 2 2
15 15 14 12 10 9 7 6 5 4 4 4 5 6 7 6 6 6 5 5 5 5 4 4 3 3 2 2 2 2 2 2 2 1 1 1 2 2 2 3 3 3 4
16 16 14 14 11 9 7 6 5 5 4 4 5 6 6 6 7 7 6 5 5 5 5 5 4 4 4 4 3 3 3 3 3 3 3 3 3 3 3 4 4 5 6
17 16 15 13 11 9 7 6 5 5 5 4 5 6 6 6 7 7 6 6 6 6 6 6 5 5 5 5 5 5 5 5 5 5 5 6 5 5 5 5 6 6 6
17 16 15 12 10 6 6 5 5 4 4 4 5 6 6 6 7 7 8 7 7 7 7 7 6 6 7 7 7 7 6 6 7 6 7 7 8 8 7 7 7 8 8
17 16 13 11 8 4 4 5 4 4 5 5 5 6 6 7 7 8 9 9 9 8 8 8 8 8 8 8 9 9 8 8 8 8 8 8 9 10 10 9 10 10 10
16 14 11 10 6 4 2 3 4 4 5 5 5 6 7 7 7 8 8 9 10 10 9 9 9 10 10 10 10 10 10 10 10 10 11 11 11 12 12 12 13 13 13
15 13 11 9 6 4 3 3 4 4 5 5 5 6 7 7 7 7 7 9 10 10 10 10 11 10 11 12 12 12 12 13 13 13 13 13 13 14 14 15 16 16 16
Wind_Direction
96 103 108 110 116 121 123 128 145 159 157 145 141 135 132 126 120 112 107 101 97 95 92 90 87 88 89 90 89 86 84 91 90 87 94 94 88 87 94 102 105 100 97
88 95 103 109 114 118 123 124 146 160 166 159 150 137 131 125 118 110 101 97 96 94 92 88 86 87 87 89 87 90 91 95 97 96 97 97 91 92 102 103 99 98 96
81 85 95 104 107 98 120 182 184 198 183 168 156 141 128 122 118 108 98 93 94 94 86 83 84 89 88 89 92 93 93 98 102 104 101 95 95 103 105 96 96 97 95
73 76 72 79 87 303 274 263 262 248 218 188 176 153 133 123 119 110 99 91 93 92 86 83 86 93 94 92 92 93 97 97 95 104 101 97 97 109 111 99 98 98 96
67 70 58 48 327 298 281 279 265 251 237 207 190 177 150 131 125 116 100 96 95 95 89 90 95 97 96 91 92 92 99 102 98 96 91 95 94 102 101 97 100 95 97
54 55 32 329 301 293 288 289 278 257 258 237 223 205 177 149 137 121 109 111 107 103 97 94 96 101 94 86 91 91 95 108 102 99 98 96 93 98 95 97 101 102 101
24 353 307 289 284 281 277 279 276 263 258 258 251 226 199 160 142 121 119 119 114 105 97 97 100 103 82 79 86 88 102 109 106 103 97 95 90 92 96 107 109 103 98
8 338 301 287 280 272 271 272 269 265 264 266 256 239 223 207 156 123 112 101 102 104 98 98 96 92 90 89 87 84 101 107 106 101 100 99 95 92 93 98 106 104 100
6 358 317 289 280 272 268 262 262 258 260 253 247 237 237 248 250 169 133 106 110 110 99 101 98 94 94 90 89 91 98 103 105 101 102 102 102 100 98 102 107 109 103
358 1 340 308 289 275 268 266 269 254 255 250 247 239 237 235 231 174 144 129 121 117 105 104 96 99 101 97 95 96 97 100 106 108 105 104 106 103 97 103 110 110 107
356 350 342 323 301 281 270 266 265 255 255 249 244 242 236 229 224 206 185 153 129 113 103 101 101 104 104 102 99 98 98 101 106 110 107 106 110 108 106 107 113 114 114
353 350 341 331 317 296 279 268 261 249 249 247 241 239 232 231 234 230 205 166 148 123 113 107 103 106 107 107 104 102 98 97 102 108 110 106 110 113 112 114 115 111 120
355 352 348 337 327 308 290 278 259 251 251 247 237 228 229 230 235 232 195 179 169 154 139 121 117 113 106 109 104 103 102 100 103 109 114 114 113 114 117 122 125 114 130
356 352 351 341 334 319 298 277 258 255 257 245 228 223 232 237 231 218 210 206 194 177 165 146 130 125 116 111 105 101 104 108 99 107 117 123 122 120 120 129 138 132 151
352 349 347 344 336 325 309 283 270 260 255 236 229 223 230 230 219 218 208 192 198 190 182 157 142 134 117 109 106 109 102 103 99 115 125 126 126 129 134 144 149 182 251
345 345 344 339 333 327 315 288 284 257 245 226 227 224 227 228 220 209 202 202 207 200 182 160 151 143 128 119 106 112 101 95 100 106 120 140 146 141 173 216 251 266 282
339 339 334 331 332 327 316 294 282 265 243 225 223 222 225 229 216 208 211 209 214 204 193 180 165 157 139 134 120 99 91 93 116 117 114 126 132 152 274 280 282 277 281
336 334 331 325 325 320 311 296 281 265 240 226 222 221 223 227 218 217 213 215 219 213 210 206 190 190 176 155 148 100 86 87 105 114 98 118 159 127 359 330 304 289 291
334 330 327 320 316 315 305 295 279 251 236 226 221 222 221 225 222 222 214 220 224 222 222 227 216 203 194 200 201 194 5 5 35 80 77 262 246 274 298 303 300 293 297
335 332 327 320 310 311 301 285 258 235 234 223 223 225 221 225 228 228 228 226 225 225 226 235 228 227 226 230 236 250 275 283 286 297 309 301 292 289 292 295 302 296 293
337 336 331 327 314 304 294 279 257 232 230 226 222 222 228 229 229 231 234 231 230 229 235 240 237 240 244 249 252 254 263 273 272 280 290 294 295 295 297 291 299 295 293
339 337 334 329 323 303 282 269 251 235 226 233 228 229 233 232 226 226 236 240 241 242 242 243 241 245 251 255 262 262 265 265 268 275 284 288 291 293 293 293 293 295 301
342 339 334 332 325 305 266 250 244 237 237 240 237 234 231 230 229 237 243 244 248 250 249 249 250 253 254 257 264 266 263 265 267 275 280 282 287 289 288 288 289 292 295
343 341 339 338 333 311 262 246 246 246 249 249 244 236 235 238 243 246 247 246 247 249 250 251 256 257 257 260 265 267 265 270 273 275 280 283 287 288 287 286 286 288 290
342 344 343 341 338 335 298 270 260 257 254 258 248 238 238 241 246 251 249 246 246 248 250 251 256 259 259 261 264 265 266 270 274 274 276 281 284 287 285 287 286 284 285
341 343 346 345 340 332 305 277 268 268 263 259 250 248 246 247 251 254 248 249 249 250 251 255 259 264 262 263 265 267 269 273 275 275 276 278 282 284 284 286 288 286 284
Height
5895 5895 5895 5896 5896 5896 5897 5897 5897 5896 5896 5896 5896 5896 5896 5896 5896 5896 5896 5896 5896 5896 5896 5896 5896 5896 5896 5896 5896 5896 5896 5897 5897 5897 5897 5898 5898 5898 5898 5899 5900 5900 5900
5896 5896 5896 5897 5897 5897 5897 5897 5897 5897 5897 5897 5897 5897 5897 5897 5897 5897 5897 5897 5897 5897 5897 5897 5897 5897 5897 5897 5897 5897 5897 5897 5898 5898 5898 5898 5899 5899 5900 5900 5901 5901 5901
5896 5896 5897 5897 5897 5898 5898 5898 5898 5898 5898 5898 5898 5898 5898 5898 5898 5898 5898 5898 5898 5898 5898 5898 5898 5898 5898 5898 5898 5898 5898 5898 5898 5899 5899 5899 5900 5900 5901 5901 5902 5902 5902
5897 5897 5898 5898 5898 5898 5898 5899 5899 5899 5899 5899 5899 5899 5899 5899 5899 5899 5899 5899 5899 5899 5898 5898 5898 5898 5898 5898 5898 5899 5899 5899 5899 5899 5900 5901 5901 5901 5901 5902 5902 5903 5903
5898 5898 5898 5898 5898 5899 5899 5899 5899 5899 5900 5900 5900 5899 5900 5900 5899 5900 5899 5899 5899 5899 5899 5899 5899 5899 5899 5899 5899 5899 5900 5900 5900 5900 5901 5901 5902 5902 5902 5903 5903 5904 5904
5899 5898 5898 5899 5899 5899 5899 5899 5900 5900 5900 5900 5900 5900 5900 5900 5900 5900 5900 5900 5900 5900 5900 5900 5900 5900 5900 5900 5900 5900 5900 5901 5901 5901 5902 5902 5903 5903 5903 5904 5904 5905 5905
5899 5899 5899 5899 5899 5899 5899 5900 5900 5900 5900 5901 5901 5901 5901 5901 5901 5901 5901 5901 5901 5901 5901 5901 5901 5901 5901 5901 5901 5901 5901 5901 5902 5902 5903 5903 5903 5904 5904 5905 5906 5906 5906
5900 5899 5899 5898 5899 5899 5899 5900 5900 5900 5901 5901 5901 5901 5901 5902 5902 5902 5901 5901 5901 5901 5901 5901 5901 5901 5901 5901 5901 5901 5902 5902 5903 5903 5904 5904 5904 5905 5905 5906 5906 5907 5907
5900 5899 5898 5898 5898 5898 5899 5899 5899 5900 5900 5901 5901 5901 5901 5902 5902 5902 5902 5902 5902 5902 5902 5902 5902 5902 5902 5902 5902 5902 5902 5903 5903 5904 5904 5904 5905 5906 5906 5907 5907 5908 5908
5900 5899 5898 5898 5898 5898 5898 5899 5899 5899 5900 5901 5901 5901 5902 5902 5902 5902 5902 5902 5903 5903 5903 5902 5902 5902 5902 5903 5903 5903 5903 5904 5904 5904 5905 5905 5906 5906 5907 5907 5908 5908 5909
5900 5899 5898 5898 5897 5898 5898 5898 5898 5899 5900 5900 5901 5901 5902 5902 5902 5903 5903 5903 5903 5903 5903 5903 5903 5903 5903 5904 5904 5904 5904 5905 5905 5905 5905 5906 5906 5907 5907 5908 5909 5909 5910
5900 5899 5898 5898 5897 5897 5897 5897 5898 5898 5899 5900 5900 5901 5901 5902 5902 5903 5903 5903 5904 5904 5904 5904 5904 5904 5904 5904 5905 5905 5905 5906 5906 5906 5906 5906 5907 5907 5908 5908 5909 5910 5910
5900 5899 5898 5897 5897 5897 5897 5897 5897 5898 5898 5899 5899 5900 5901 5902 5902 5903 5903 5904 5904 5904 5905 5905 5905 5905 5905 5905 5906 5906 5906 5906 5907 5907 5907 5907 5907 5908 5908 5909 5909 5910 5910
5900 5899 5898 5897 5896 5896 5896 5896 5896 5897 5897 5898 5899 5900 5901 5901 5902 5903 5903 5904 5904 5905 5905 5905 5906 5906 5906 5906 5906 5906 5906 5907 5907 5907 5907 5908 5908 5908 5909 5909 5909 5910 5910
5900 5899 5897 5897 5896 5895 5895 5895 5895 5896 5896 5897 5898 5899 5900 5901 5902 5902 5903 5904 5904 5905 5905 5906 5906 5906 5907 5907 5907 5907 5907 5907 5907 5908 5908 5908 5908 5909 5909 5909 5909 5910 5910
5900 5899 5897 5897 5896 5895 5894 5894 5894 5895 5895 5896 5898 5899 5900 5901 5901 5902 5903 5904 5904 5905 5905 5906 5906 5907 5907 5907 5908 5908 5908 5907 5908 5908 5908 5908 5908 5909 5909 5909 5909 5910 5910
5899 5898 5897 5896 5895 5894 5893 5893 5893 5894 5895 5896 5897 5898 5900 5901 5901 5902 5903 5904 5904 5905 5906 5906 5907 5907 5907 5908 5908 5908 5908 5908 5908 5908 5908 5908 5908 5909 5909 5909 5909 5909 5910
5899 5897 5896 5895 5894 5893 5892 5892 5892 5893 5894 5895 5897 5898 5899 5900 5901 5902 5903 5904 5904 5905 5906 5906 5907 5907 5908 5908 5908 5909 5909 5909 5909 5909 5909 5909 5908 5909 5909 5909 5909 5909 5909
5898 5896 5894 5893 5892 5892 5891 5891 5892 5893 5894 5895 5896 5897 5898 5900 5900 5902 5903 5903 5904 5905 5906 5906 5906 5907 5907 5908 5908 5909 5909 5909 5909 5909 5909 5908 5908 5908 5908 5909 5909 5909 5908
5897 5894 5893 5891 5891 5890 5890 5890 5891 5892 5893 5895 5896 5897 5898 5899 5900 5901 5902 5903 5903 5904 5905 5906 5906 5907 5907 5908 5908 5908 5909 5909 5909 5909 5908 5908 5908 5908 5908 5908 5908 5908 5908
5896 5893 5891 5890 5889 5889 5889 5889 5890 5892 5893 5894 5895 5896 5897 5898 5899 5900 5901 5902 5903 5904 5904 5905 5906 5906 5907 5907 5908 5908 5908 5908 5908 5908 5908 5908 5908 5907 5907 5907 5907 5907 5907
5895 5893 5890 5888 5887 5887 5888 5888 5889 5891 5892 5893 5894 5895 5896 5897 5898 5899 5900 5901 5902 5903 5904 5904 5905 5905 5906 5906 5907 5907 5907 5908 5907 5907 5907 5907 5907 5906 5906 5906 5906 5906 5906
5894 5892 5889 5887 5886 5886 5886 5887 5889 5890 5891 5892 5893 5894 5895 5896 5897 5898 5899 5900 5901 5902 5903 5903 5904 5904 5904 5905 5905 5906 5906 5906 5906 5906 5906 5905 5905 5905 5905 5905 5904 5904 5903
5894 5891 5888 5886 5885 5884 5885 5886 5888 5889 5890 5891 5892 5893 5894 5895 5896 5897 5898 5899 5900 5901 5901 5902 5902 5902 5903 5903 5904 5904 5904 5904 5904 5904 5904 5904 5904 5903 5903 5903 5902 5902 5901
5893 5891 5888 5887 5885 5885 5885 5886 5887 5888 5889 5890 5891 5892 5893 5894 5894 5895 5896 5897 5898 5899 5899 5900 5900 5901 5901 5901 5902 5902 5902 5902 5902 5902 5902 5902 5902 5901 5900 5900 5900 5899 5899
5893 5891 5889 5887 5886 5885 5885 5886 5887 5887 5888 5889 5890 5891 5891 5892 5893 5893 5894 5895 5896 5897 5898 5898 5898 5898 5899 5899 5899 5899 5900 5900 5900 5899 5899 5899 5899 5898 5897 5897 5896 5895 5895